Westhampton Beach, NY
on Saturday, December 9, 2017

Saturday
       
Previous Day Next Day
Daily Summary
 ActualAverageRecord
Temperature
Mean Temperature °F °C °F °C  
Max Temperature 36°F 2°C 45°F 7°C 55°F 12°C (2008)
Min Temperature 33°F 1°C 27°F -2°C 3°F -16°C (2002)
Degree Days
Heating Degree Days 30    
Moisture
Dew Point 29°F -2°C   
Average Humidity 85    
Maximum Humidity 92    
Minimum Humidity 54    
Precipitation
Precipitation 0.28 in / 7.11 cm in / cm in / cm ()
Wind
Wind Speed 7 mph / 11 km/h   
Max Wind Speed 15 mph / 24 km/h   
Max Gust Speed 22 mph / 35 km/h   
Visibility 5 miles / 8 kilometers   
Events Rain , Snow   
Averages and records for this station are not official NWS values.
Key: T is trace of precipitation, MM is missing value
Source: NWS Daily Summary
Seasonal Weather Averages
Time(EST)TemperatureDew PointHumidity Pressure Visibility Wind DirectionWind SpeedGust SpeedPrecipitationEvents Conditions
12:53 AM 35.1°F 1.7°C 21.0°F -6.1°C 57% 29.99 in / 1015.4 hPa 10.0 miles / 16.1 kilometers WSW 5.8 mph / 9.3 km/h - N/A   Overcast
1:53 AM 35.1°F 1.7°C 19.9°F -6.7°C 54% 29.99 in / 1015.5 hPa 10.0 miles / 16.1 kilometers Calm Calm - N/A   Overcast
2:53 AM 33.1°F 0.6°C 24.1°F -4.4°C 70% 29.97 in / 1014.9 hPa 10.0 miles / 16.1 kilometers Calm Calm - N/A   Overcast
3:53 AM 34.0°F 1.1°C 24.1°F -4.4°C 67% 29.97 in / 1014.8 hPa 10.0 miles / 16.1 kilometers NW 3.5 mph / 5.6 km/h - N/A   Overcast
4:53 AM 34.0°F 1.1°C 24.1°F -4.4°C 67% 29.98 in / 1015.1 hPa 10.0 miles / 16.1 kilometers Calm Calm - N/A   Overcast
5:53 AM 34.0°F 1.1°C 23.0°F -5.0°C 64% 29.96 in / 1014.4 hPa 10.0 miles / 16.1 kilometers Calm Calm - N/A   Overcast
6:53 AM 34.0°F 1.1°C 23.0°F -5.0°C 64% 29.95 in / 1014.2 hPa 10.0 miles / 16.1 kilometers Calm Calm - N/A   Overcast
7:53 AM 36.0°F 2.2°C 21.9°F -5.6°C 57% 29.96 in / 1014.5 hPa 10.0 miles / 16.1 kilometers North 6.9 mph / 11.1 km/h - N/A   Overcast
8:53 AM 36.0°F 2.2°C 26.1°F -3.3°C 67% 29.95 in / 1014.0 hPa 10.0 miles / 16.1 kilometers North 8.1 mph / 13.0 km/h - 0.00 in / 0.0 cm   Overcast
9:18 AM 36.0°F 2.2°C 26.1°F -3.3°C 67% 29.92 in / 1013.1 hPa 2.0 miles / 3.2 kilometers NNE 11.5 mph / 18.5 km/h - 0.00 in / 0.0 cm Snow Light Snow
9:53 AM 35.1°F 1.7°C 28.0°F -2.2°C 76% 29.93 in / 1013.4 hPa 4.0 miles / 6.4 kilometers NNE 8.1 mph / 13.0 km/h - 0.00 in / 0.0 cm Snow Light Snow
10:11 AM 35.1°F 1.7°C 28.9°F -1.7°C 78% 29.93 in / 1013.4 hPa 3.0 miles / 4.8 kilometers NE 5.8 mph / 9.3 km/h - 0.00 in / 0.0 cm Snow Light Snow
10:16 AM 34.0°F 1.1°C 28.9°F -1.7°C 82% 29.93 in / 1013.4 hPa 1.8 miles / 2.8 kilometers NE 8.1 mph / 13.0 km/h - 0.00 in / 0.0 cm Snow Light Snow
10:53 AM 33.1°F 0.6°C 30.0°F -1.1°C 89% 29.92 in / 1013.1 hPa 1.2 miles / 2.0 kilometers North 3.5 mph / 5.6 km/h - 0.02 in / 0.5 cm Snow Light Snow
11:39 AM 33.1°F 0.6°C 30.0°F -1.1°C 89% 29.88 in / 1011.7 hPa 1.0 miles / 1.6 kilometers North 5.8 mph / 9.3 km/h - 0.02 in / 0.5 cm Snow Light Snow
11:53 AM 33.1°F 0.6°C 30.0°F -1.1°C 89% 29.88 in / 1011.6 hPa 0.8 miles / 1.2 kilometers North 6.9 mph / 11.1 km/h - 0.03 in / 0.8 cm Snow Light Snow
12:53 PM 33.1°F 0.6°C 30.0°F -1.1°C 89% 29.82 in / 1009.8 hPa 0.8 miles / 1.2 kilometers NNE 10.4 mph / 16.7 km/h - 0.05 in / 1.3 cm Snow Light Snow
1:04 PM 33.1°F 0.6°C 30.0°F -1.1°C 89% 29.81 in / 1009.4 hPa 1.2 miles / 2.0 kilometers North 9.2 mph / 14.8 km/h - 0.00 in / 0.0 cm Snow Light Snow
1:25 PM 33.1°F 0.6°C 30.0°F -1.1°C 89% 29.81 in / 1009.4 hPa 1.2 miles / 2.0 kilometers North 9.2 mph / 14.8 km/h - 0.01 in / 0.3 cm Snow Light Snow
1:39 PM 33.1°F 0.6°C 30.9°F -0.6°C 92% 29.79 in / 1008.7 hPa 1.2 miles / 2.0 kilometers NNE 10.4 mph / 16.7 km/h - 0.02 in / 0.5 cm Snow Light Snow
1:53 PM 33.1°F 0.6°C 30.0°F -1.1°C 89% 29.78 in / 1008.2 hPa 2.0 miles / 3.2 kilometers North 12.7 mph / 20.4 km/h 18.4 mph / 29.6 km/h 0.02 in / 0.5 cm Snow Light Snow
2:12 PM 33.1°F 0.6°C 30.9°F -0.6°C 92% 29.74 in / 1007.0 hPa 2.5 miles / 4.0 kilometers North 12.7 mph / 20.4 km/h - 0.01 in / 0.3 cm Snow Light Snow
2:28 PM 33.1°F 0.6°C 30.9°F -0.6°C 92% 29.76 in / 1007.7 hPa 1.8 miles / 2.8 kilometers NNE 12.7 mph / 20.4 km/h - 0.02 in / 0.5 cm Snow Light Snow
2:38 PM 33.1°F 0.6°C 30.9°F -0.6°C 92% 29.75 in / 1007.3 hPa 2.5 miles / 4.0 kilometers NNE 11.5 mph / 18.5 km/h - 0.02 in / 0.5 cm Snow Light Snow
2:49 PM 33.8°F 1.0°C 30.2°F -1.0°C 87% 29.75 in / 1007.3 hPa 4.0 miles / 6.4 kilometers NNE 10.4 mph / 16.7 km/h - 0.02 in / 0.5 cm Snow Light Snow
2:53 PM 33.1°F 0.6°C 30.9°F -0.6°C 92% 29.75 in / 1007.2 hPa 2.5 miles / 4.0 kilometers NNE 13.8 mph / 22.2 km/h - 0.03 in / 0.8 cm Snow Light Snow
3:02 PM 33.1°F 0.6°C 30.9°F -0.6°C 92% 29.75 in / 1007.3 hPa 1.2 miles / 2.0 kilometers North 12.7 mph / 20.4 km/h - 0.02 in / 0.5 cm Snow Light Snow
3:14 PM 33.1°F 0.6°C 30.9°F -0.6°C 92% 29.73 in / 1006.7 hPa 3.0 miles / 4.8 kilometers North 15.0 mph / 24.1 km/h - 0.02 in / 0.5 cm Snow Light Snow
3:53 PM 33.1°F 0.6°C 30.9°F -0.6°C 92% 29.73 in / 1006.7 hPa 5.0 miles / 8.0 kilometers NNE 11.5 mph / 18.5 km/h - 0.02 in / 0.5 cm Rain Rain
4:53 PM 34.0°F 1.1°C 30.9°F -0.6°C 89% 29.72 in / 1006.2 hPa 7.0 miles / 11.3 kilometers NNE 11.5 mph / 18.5 km/h - 0.03 in / 0.8 cm Rain Light Rain
5:12 PM 33.1°F 0.6°C 30.9°F -0.6°C 92% 29.71 in / 1006.0 hPa 2.0 miles / 3.2 kilometers North 11.5 mph / 18.5 km/h 21.9 mph / 35.2 km/h 0.01 in / 0.3 cm Snow Light Snow
5:22 PM 33.1°F 0.6°C 30.9°F -0.6°C 92% 29.70 in / 1005.6 hPa 4.0 miles / 6.4 kilometers NNE 10.4 mph / 16.7 km/h - 0.02 in / 0.5 cm Snow Light Snow
5:53 PM 33.1°F 0.6°C 30.9°F -0.6°C 92% 29.70 in / 1005.5 hPa 5.0 miles / 8.0 kilometers NNE 9.2 mph / 14.8 km/h - 0.02 in / 0.5 cm Rain Light Rain
6:53 PM 33.1°F 0.6°C 30.9°F -0.6°C 92% 29.68 in / 1005.1 hPa 3.0 miles / 4.8 kilometers North 11.5 mph / 18.5 km/h - 0.02 in / 0.5 cm Snow Light Snow
7:04 PM 33.1°F 0.6°C 30.9°F -0.6°C 92% 29.69 in / 1005.3 hPa 2.5 miles / 4.0 kilometers NNE 9.2 mph / 14.8 km/h - 0.01 in / 0.3 cm Snow Light Snow
7:11 PM 33.1°F 0.6°C 30.9°F -0.6°C 92% 29.69 in / 1005.3 hPa 3.0 miles / 4.8 kilometers North 9.2 mph / 14.8 km/h - 0.01 in / 0.3 cm Snow Light Snow
7:53 PM 33.1°F 0.6°C 30.9°F -0.6°C 92% 29.69 in / 1005.2 hPa 5.0 miles / 8.0 kilometers North 9.2 mph / 14.8 km/h - 0.02 in / 0.5 cm Snow Light Snow
8:32 PM 33.1°F 0.6°C 30.9°F -0.6°C 92% 29.70 in / 1005.6 hPa 3.0 miles / 4.8 kilometers North 5.8 mph / 9.3 km/h - 0.01 in / 0.3 cm Snow Light Snow
8:38 PM 33.1°F 0.6°C 30.9°F -0.6°C 92% 29.68 in / 1005.0 hPa 2.5 miles / 4.0 kilometers North 6.9 mph / 11.1 km/h - 0.01 in / 0.3 cm Snow Light Snow
8:53 PM 33.1°F 0.6°C 30.9°F -0.6°C 92% 29.67 in / 1004.7 hPa 2.5 miles / 4.0 kilometers North 8.1 mph / 13.0 km/h - 0.02 in / 0.5 cm Snow Light Snow
9:02 PM 33.1°F 0.6°C 30.9°F -0.6°C 92% 29.67 in / 1004.6 hPa 3.0 miles / 4.8 kilometers North 6.9 mph / 11.1 km/h - 0.00 in / 0.0 cm Snow Light Snow
9:53 PM 33.1°F 0.6°C 30.9°F -0.6°C 92% 29.68 in / 1005.0 hPa 8.0 miles / 12.9 kilometers NNW 8.1 mph / 13.0 km/h - 0.00 in / 0.0 cm   Overcast
10:01 PM 33.1°F 0.6°C 30.9°F -0.6°C 92% 29.68 in / 1005.0 hPa 7.0 miles / 11.3 kilometers North 6.9 mph / 11.1 km/h - N/A   Overcast
10:13 PM 33.1°F 0.6°C 30.9°F -0.6°C 92% 29.69 in / 1005.3 hPa 8.0 miles / 12.9 kilometers NNW 8.1 mph / 13.0 km/h - 0.00 in / 0.0 cm   Overcast
10:27 PM 33.1°F 0.6°C 30.9°F -0.6°C 92% 29.68 in / 1005.0 hPa 7.0 miles / 11.3 kilometers NNW 6.9 mph / 11.1 km/h - 0.00 in / 0.0 cm   Overcast
10:53 PM 33.1°F 0.6°C 30.9°F -0.6°C 92% 29.68 in / 1005.0 hPa 5.0 miles / 8.0 kilometers NNW 6.9 mph / 11.1 km/h - 0.00 in / 0.0 cm Snow Light Snow
11:29 PM 33.1°F 0.6°C 30.9°F -0.6°C 92% 29.68 in / 1005.0 hPa 9.0 miles / 14.5 kilometers NNW 6.9 mph / 11.1 km/h - 0.00 in / 0.0 cm   Overcast
11:53 PM 33.1°F 0.6°C 30.9°F -0.6°C 92% 29.69 in / 1005.3 hPa 5.0 miles / 8.0 kilometers NW 8.1 mph / 13.0 km/h - 0.00 in / 0.0 cm Snow Light Snow